When you browse on this site, cookies collect data to enhance your experience and personalize the content and advertising you see.
Visit our Privacy Policy to learn more. By continuing to use the site, you agree to this use of cookies and data.
  • In Italy
  • List of Countries
  • For 7 days
  • Water Temperature
  • Weather Map
  • Weather Widgets
  • user-avatar
    Login

    Hourly Weather Zanzibar

    Today, 14 October, Monday

    Time Temperature Precipitation Wind Pressure Humidity
    00:00 +26°C° 0 mm 3 mps 760 mmHg 90%
    01:00 +26°C° 0 mm 3 mps 759 mmHg 90%
    02:00 +26°C° 0 mm 3 mps 759 mmHg 90%
    03:00 +26°C° 0 mm 3 mps 759 mmHg 89%
    04:00 +26°C° 0 mm 2 mps 759 mmHg 89%
    05:00 +25°C° 0 mm 2 mps 759 mmHg 88%
    06:00 +25°C° 0 mm 2 mps 760 mmHg 88%
    07:00 +27°C° 0 mm 2 mps 760 mmHg 82%
    08:00 +28°C° 0 mm 2 mps 761 mmHg 75%
    09:00 +29°C° 0 mm 3 mps 761 mmHg 69%
    10:00 +30°C° 0 mm 3 mps 761 mmHg 68%
    11:00 +30°C° 0 mm 3 mps 761 mmHg 67%
    12:00 +31°C° 0 mm 3 mps 760 mmHg 65%
    13:00 +31°C° 0 mm 3 mps 760 mmHg 64%
    14:00 +31°C° 0 mm 3 mps 759 mmHg 62%
    15:00 +31°C° 0 mm 3 mps 758 mmHg 60%
    16:00 +30°C° 0 mm 4 mps 758 mmHg 65%
    17:00 +29°C° 0 mm 4 mps 758 mmHg 69%
    18:00 +28°C° 0 mm 5 mps 759 mmHg 74%
    19:00 +27°C° 0 mm 5 mps 759 mmHg 78%
    20:00 +27°C° 0 mm 5 mps 759 mmHg 81%
    21:00 +26°C° 0 mm 4 mps 760 mmHg 85%
    22:00 +26°C° 0 mm 4 mps 760 mmHg 86%
    23:00 +26°C° 0 mm 4 mps 760 mmHg 87%

    Tomorrow, 15 October, Tuesday

    Time Temperature Precipitation Wind Pressure Humidity
    00:00 +26°C° 0 mm 3 mps 760 mmHg 88%
    01:00 +26°C° 0 mm 3 mps 760 mmHg 89%
    02:00 +25°C° 0 mm 2 mps 759 mmHg 89%
    03:00 +25°C° 0 mm 2 mps 758 mmHg 89%
    04:00 +25°C° 0 mm 2 mps 759 mmHg 89%
    05:00 +25°C° 0 mm 2 mps 759 mmHg 90%
    06:00 +25°C° 0 mm 2 mps 759 mmHg 90%
    07:00 +26°C° 0 mm 2 mps 760 mmHg 84%
    08:00 +28°C° 0 mm 2 mps 760 mmHg 79%
    09:00 +29°C° 0 mm 3 mps 761 mmHg 74%
    10:00 +30°C° 0 mm 3 mps 761 mmHg 69%
    11:00 +31°C° 0 mm 3 mps 760 mmHg 65%
    12:00 +31°C° 0 mm 3 mps 760 mmHg 61%
    13:00 +33°C° 0 mm 3 mps 759 mmHg 61%
    14:00 +33°C° 0 mm 4 mps 759 mmHg 61%
    15:00 +33°C° 0 mm 4 mps 758 mmHg 61%
    16:00 +32°C° 0.1 mm 4 mps 758 mmHg 64%
    17:00 +30°C° 0.1 mm 5 mps 758 mmHg 68%
    18:00 +29°C° 0.1 mm 5 mps 758 mmHg 72%
    19:00 +28°C° 0 mm 5 mps 759 mmHg 75%
    20:00 +28°C° 0 mm 5 mps 759 mmHg 79%
    21:00 +27°C° 0 mm 5 mps 759 mmHg 82%
    22:00 +27°C° 0 mm 5 mps 759 mmHg 83%
    23:00 +27°C° 0 mm 4 mps 759 mmHg 84%

    Day after tomorrow, 16 October, Wednesday

    Time Temperature Precipitation Wind Pressure Humidity
    00:00 +27°C° 0 mm 4 mps 759 mmHg 85%
    01:00 +27°C° 0 mm 4 mps 759 mmHg 86%
    02:00 +27°C° 0 mm 4 mps 758 mmHg 86%
    03:00 +27°C° 0 mm 4 mps 758 mmHg 87%
    04:00 +27°C° 0.1 mm 3 mps 758 mmHg 88%
    05:00 +27°C° 0.1 mm 3 mps 759 mmHg 88%
    06:00 +27°C° 0.1 mm 3 mps 759 mmHg 88%
    07:00 +27°C° 0.4 mm 3 mps 759 mmHg 85%
    08:00 +28°C° 0.4 mm 3 mps 760 mmHg 81%
    09:00 +29°C° 0.4 mm 3 mps 761 mmHg 78%
    10:00 +30°C° 0.7 mm 3 mps 760 mmHg 76%
    11:00 +30°C° 0.7 mm 3 mps 760 mmHg 74%
    12:00 +32°C° 0.7 mm 4 mps 759 mmHg 72%
    13:00 +32°C° 0.7 mm 4 mps 758 mmHg 71%
    14:00 +32°C° 0.7 mm 5 mps 758 mmHg 70%
    15:00 +32°C° 0.7 mm 5 mps 757 mmHg 69%
    16:00 +30°C° 0.4 mm 5 mps 757 mmHg 73%
    17:00 +29°C° 0.4 mm 6 mps 757 mmHg 77%
    18:00 +28°C° 0.4 mm 6 mps 757 mmHg 81%
    19:00 +28°C° 0.2 mm 6 mps 758 mmHg 83%
    20:00 +27°C° 0.2 mm 5 mps 758 mmHg 85%
    21:00 +27°C° 0.2 mm 5 mps 759 mmHg 88%
    22:00 +27°C° 0.6 mm 5 mps 759 mmHg 88%
    23:00 +27°C° 0.6 mm 5 mps 759 mmHg 88%

    17 October, Thursday

    Time Temperature Precipitation Wind Pressure Humidity
    00:00 +27°C° 0.6 mm 5 mps 759 mmHg 89%
    01:00 +27°C° 0.9 mm 4 mps 758 mmHg 89%
    02:00 +27°C° 0.9 mm 4 mps 758 mmHg 89%
    03:00 +26°C° 0.9 mm 4 mps 758 mmHg 88%
    04:00 +26°C° 0.5 mm 4 mps 758 mmHg 88%
    05:00 +26°C° 0.5 mm 3 mps 758 mmHg 88%
    06:00 +26°C° 0.5 mm 3 mps 759 mmHg 88%
    07:00 +27°C° 1 mm 3 mps 759 mmHg 82%
    08:00 +29°C° 1 mm 3 mps 760 mmHg 77%
    09:00 +30°C° 1 mm 3 mps 760 mmHg 71%
    10:00 +30°C° 0.4 mm 4 mps 760 mmHg 68%
    11:00 +32°C° 0.4 mm 4 mps 759 mmHg 65%
    12:00 +33°C° 0.4 mm 4 mps 759 mmHg 62%
    13:00 +33°C° 0.3 mm 5 mps 758 mmHg 63%
    14:00 +32°C° 0.3 mm 5 mps 758 mmHg 64%
    15:00 +32°C° 0.3 mm 5 mps 757 mmHg 64%
    16:00 +30°C° 0.9 mm 6 mps 758 mmHg 70%
    17:00 +29°C° 0.9 mm 6 mps 758 mmHg 76%
    18:00 +28°C° 0.9 mm 6 mps 758 mmHg 82%
    19:00 +27°C° 0.9 mm 6 mps 758 mmHg 84%
    20:00 +27°C° 0.9 mm 6 mps 759 mmHg 86%
    21:00 +27°C° 0.9 mm 5 mps 759 mmHg 88%
    22:00 +26°C° 0.3 mm 5 mps 759 mmHg 89%
    23:00 +26°C° 0.3 mm 5 mps 759 mmHg 89%

    18 October, Friday

    Time Temperature Precipitation Wind Pressure Humidity
    00:00 +26°C° 0.3 mm 4 mps 759 mmHg 90%
    01:00 +26°C° 0.4 mm 4 mps 758 mmHg 89%
    02:00 +26°C° 0.4 mm 4 mps 758 mmHg 89%
    03:00 +26°C° 0.4 mm 4 mps 758 mmHg 89%
    04:00 +26°C° 0 mm 4 mps 758 mmHg 89%
    05:00 +26°C° 0 mm 4 mps 759 mmHg 88%
    06:00 +26°C° 0 mm 3 mps 759 mmHg 88%
    07:00 +27°C° 0 mm 3 mps 759 mmHg 82%
    08:00 +28°C° 0 mm 3 mps 760 mmHg 75%
    09:00 +30°C° 0 mm 3 mps 760 mmHg 69%
    10:00 +30°C° 0 mm 4 mps 760 mmHg 67%
    11:00 +32°C° 0 mm 4 mps 759 mmHg 65%
    12:00 +32°C° 0 mm 4 mps 759 mmHg 64%
    13:00 +32°C° 0.1 mm 4 mps 758 mmHg 63%
    14:00 +32°C° 0.1 mm 5 mps 757 mmHg 63%
    15:00 +32°C° 0.1 mm 5 mps 756 mmHg 62%
    16:00 +30°C° 0.5 mm 5 mps 757 mmHg 68%
    17:00 +29°C° 0.5 mm 6 mps 757 mmHg 74%
    18:00 +28°C° 0.5 mm 6 mps 757 mmHg 81%
    19:00 +27°C° 1.1 mm 6 mps 758 mmHg 84%
    20:00 +27°C° 1.1 mm 6 mps 758 mmHg 87%
    21:00 +26°C° 1.1 mm 6 mps 759 mmHg 90%
    22:00 +26°C° 2.2 mm 5 mps 759 mmHg 90%
    23:00 +26°C° 2.2 mm 5 mps 759 mmHg 91%

    19 October, Saturday

    Time Temperature Precipitation Wind Pressure Humidity
    00:00 +26°C° 2.2 mm 4 mps 758 mmHg 91%
    01:00 +26°C° 2.4 mm 4 mps 758 mmHg 91%
    02:00 +26°C° 2.4 mm 4 mps 758 mmHg 90%
    03:00 +26°C° 2.4 mm 4 mps 758 mmHg 90%
    04:00 +26°C° 1.9 mm 4 mps 758 mmHg 90%
    05:00 +26°C° 1.9 mm 4 mps 758 mmHg 90%
    06:00 +26°C° 1.9 mm 4 mps 758 mmHg 90%
    07:00 +26°C° 2 mm 4 mps 759 mmHg 90%
    08:00 +27°C° 2 mm 3 mps 759 mmHg 89%
    09:00 +27°C° 2 mm 3 mps 759 mmHg 88%
    10:00 +27°C° 2 mm 3 mps 759 mmHg 87%
    11:00 +27°C° 2 mm 3 mps 759 mmHg 86%
    12:00 +28°C° 2 mm 3 mps 758 mmHg 85%
    13:00 +27°C° 2.2 mm 2 mps 758 mmHg 87%
    14:00 +27°C° 2.2 mm 2 mps 758 mmHg 88%
    15:00 +27°C° 2.2 mm 2 mps 757 mmHg 90%
    16:00 +26°C° 2.3 mm 2 mps 757 mmHg 91%
    17:00 +26°C° 2.3 mm 2 mps 757 mmHg 92%
    18:00 +26°C° 2.3 mm 2 mps 758 mmHg 93%
    19:00 +26°C° 1 mm 3 mps 758 mmHg 93%
    20:00 +26°C° 1 mm 3 mps 759 mmHg 93%
    21:00 +26°C° 1 mm 4 mps 759 mmHg 93%
    22:00 +26°C° 0.6 mm 3 mps 759 mmHg 92%
    23:00 +26°C° 0.6 mm 3 mps 759 mmHg 91%
    Show more